Калкаман

Казахстан     51°57′11″N   76°01′32″E
темп.,
°C
ветер,
м/с
пор.,
м/с
влажн.,
%
обл.,
%
осадки,
мм/ч
давл.,
гПа
погр.,
м
28 июля, ср
ср2800:00+16ссз225321 0.0 101224
03:00+17з2249100 0.0 101163
06:00+15з23526 0.0 101135
09:00+18зюз234037 0.0 1012413
12:00+23з563147 0.0 10112440
15:00+23з553198 0.0 10102130
18:00+24сз132714 0.0 10092580
21:00+21вюв23340 0.0 100920
29 июля, чт
чт2900:00+19ююв453787 0.0 100967
03:00+19ю4839100 0.0 1008207
06:00+18ююз224342 0.0 100823
09:00+22с223599 0.0 1008422
12:00+25ссз2329100 0.0 10082173
15:00+25с6433100 0.0 10082215
18:00+24с5537100 0.0 10081119
21:00+17с4680100 4.8 1011222
30 июля, пт
пт3000:00+17ссв227289 5.1 101146
03:00+17ссз35715 0.0 1012118
06:00+15с34600 0.0 101377
09:00+20ссз44400 0.0 1015641
12:00+23зсз45290 0.0 10161925
15:00+25зсз44250 0.0 10152244
18:00+25сз33245 0.0 10142227
21:00+21всв1132100 0.0 101512
31 июля, сб
сб3100:00+20вюв4533100 0.0 101568
03:00+19юв5937100 0.0 1014155
06:00+18ююв4113977 0.0 1014219
09:00+23ююз683361 0.0 1014577
12:00+26юз453292 0.0 1012856
15:00+30юз362370 0.0 10102628
18:00+28зсз782667 0.0 1010838
21:00+25ю573324 0.0 100987
1 августа, вс
вс100:00+23сз59441 0.0 1010238
03:00+18сз35812 2.3 101099
06:00+19сз33680 2.7 101157
09:00+24сз56480 0.0 1012538
12:00+28сз45370 0.0 10111955
15:00+30сз663142 0.0 10102733
18:00+30ссз453114 0.0 10102517
21:00+26св364470 0.0 1011127